TimeEST,TemperatureF,Dew PointF,Humidity,Sea Level PressureIn,VisibilityMPH,Wind Direction,Wind SpeedMPH,Gust SpeedMPH,PrecipitationIn,Events,Conditions,WindDirDegrees,DateUTC
12:15 AM,48.7,48.7,100,30.04,4.0,Calm,Calm,-,N/A,,Clear,0,2012-12-09 05:15:00
12:35 AM,47.8,47.8,100,30.04,4.0,Calm,Calm,-,N/A,,Clear,0,2012-12-09 05:35:00
12:55 AM,48.2,48.2,100,30.04,5.0,Calm,Calm,-,N/A,,Mostly Cloudy,0,2012-12-09 05:55:00
1:15 AM,50.0,50.0,100,30.03,5.0,Calm,Calm,-,N/A,,Overcast,0,2012-12-09 06:15:00
1:35 AM,50.2,50.2,100,30.03,5.0,Calm,Calm,-,N/A,,Overcast,0,2012-12-09 06:35:00
2:15 AM,50.7,50.7,100,30.04,7.0,Calm,Calm,-,N/A,,Overcast,0,2012-12-09 07:15:00
2:35 AM,51.8,51.8,100,30.04,7.0,Calm,Calm,-,N/A,,Light Drizzle,0,2012-12-09 07:35:00
2:55 AM,50.9,50.9,100,30.05,7.0,Calm,Calm,-,N/A,,Overcast,0,2012-12-09 07:55:00
3:15 AM,51.1,51.1,100,30.05,7.0,Calm,Calm,-,N/A,,Overcast,0,2012-12-09 08:15:00
3:35 AM,51.4,51.4,100,30.05,7.0,Calm,Calm,-,N/A,,Overcast,0,2012-12-09 08:35:00
3:55 AM,51.6,51.6,100,30.05,7.0,Calm,Calm,-,N/A,Rain,Light Rain,0,2012-12-09 08:55:00
4:15 AM,51.8,51.8,100,30.05,4.0,Calm,Calm,-,0.07,Rain,Light Rain,0,2012-12-09 09:15:00
4:35 AM,51.1,51.1,100,30.05,5.0,East,4.6,-,0.07,,Overcast,100,2012-12-09 09:35:00
4:55 AM,51.4,51.4,100,30.05,5.0,SE,3.5,-,0.07,,Overcast,130,2012-12-09 09:55:00
5:15 AM,51.3,51.3,100,30.06,3.0,ESE,3.5,-,N/A,,Overcast,110,2012-12-09 10:15:00
5:35 AM,51.3,51.3,100,30.06,7.0,Calm,Calm,-,0.01,,Overcast,0,2012-12-09 10:35:00
6:15 AM,51.4,51.4,100,30.07,5.0,ESE,3.5,-,0.02,Rain,Rain,110,2012-12-09 11:15:00
6:35 AM,51.8,51.8,100,30.07,5.0,Calm,Calm,-,0.02,Rain,Rain,0,2012-12-09 11:35:00
6:55 AM,51.8,51.8,100,30.09,5.0,Calm,Calm,-,0.03,,Light Drizzle,0,2012-12-09 11:55:00
7:15 AM,52.0,52.0,100,30.09,5.0,East,4.6,-,N/A,,Overcast,100,2012-12-09 12:15:00
7:35 AM,51.8,51.8,100,30.09,5.0,ESE,4.6,-,N/A,,Overcast,110,2012-12-09 12:35:00
7:55 AM,51.8,51.8,100,30.09,5.0,East,3.5,-,N/A,,Overcast,90,2012-12-09 12:55:00
8:15 AM,51.4,51.4,100,30.09,5.0,East,4.6,-,N/A,,Mostly Cloudy,90,2012-12-09 13:15:00
8:35 AM,52.3,52.3,100,30.08,10.0,East,4.6,-,N/A,,Scattered Clouds,90,2012-12-09 13:35:00
8:55 AM,53.8,53.2,98,30.09,10.0,ESE,8.1,-,N/A,,Mostly Cloudy,110,2012-12-09 13:55:00
9:15 AM,54.7,54.0,97,30.09,10.0,East,5.8,-,N/A,,Overcast,100,2012-12-09 14:15:00
9:35 AM,56.7,55.4,96,30.09,10.0,East,6.9,-,N/A,,Overcast,90,2012-12-09 14:35:00
10:15 AM,59.2,56.3,90,30.08,10.0,ESE,4.6,-,N/A,,Clear,120,2012-12-09 15:15:00
10:35 AM,60.1,56.8,89,30.08,10.0,East,5.8,-,N/A,,Clear,80,2012-12-09 15:35:00
10:55 AM,62.1,57.7,86,30.07,10.0,East,5.8,-,N/A,,Clear,100,2012-12-09 15:55:00
11:15 AM,63.3,57.7,82,30.07,10.0,Calm,Calm,-,N/A,,Mostly Cloudy,0,2012-12-09 16:15:00
11:35 AM,64.2,57.4,78,30.06,10.0,Calm,Calm,-,N/A,,Scattered Clouds,0,2012-12-09 16:35:00
11:55 AM,63.5,57.2,80,30.05,10.0,Calm,Calm,-,N/A,,Clear,0,2012-12-09 16:55:00
12:15 PM,66.7,56.8,70,30.03,10.0,WNW,3.5,-,N/A,,Clear,300,2012-12-09 17:15:00
12:35 PM,68.0,56.5,67,30.02,10.0,West,6.9,-,N/A,,Clear,280,2012-12-09 17:35:00
12:55 PM,68.7,56.5,65,30.01,10.0,West,5.8,-,N/A,,Clear,270,2012-12-09 17:55:00
1:15 PM,69.4,55.8,62,30.00,10.0,WSW,10.4,-,N/A,,Clear,240,2012-12-09 18:15:00
1:35 PM,68.5,54.7,61,29.99,10.0,WSW,11.5,-,N/A,,Clear,250,2012-12-09 18:35:00
1:55 PM,68.4,54.1,60,29.98,10.0,WSW,8.1,-,N/A,,Clear,250,2012-12-09 18:55:00
2:15 PM,68.4,54.7,62,29.98,10.0,West,8.1,-,N/A,,Clear,280,2012-12-09 19:15:00
2:35 PM,68.0,54.0,61,29.98,10.0,West,6.9,-,N/A,,Clear,280,2012-12-09 19:35:00
2:55 PM,68.9,55.2,62,29.98,10.0,West,5.8,-,N/A,,Clear,280,2012-12-09 19:55:00
3:15 PM,69.3,54.5,59,29.98,10.0,WNW,6.9,-,N/A,,Clear,300,2012-12-09 20:15:00
3:35 PM,68.7,54.5,60,29.97,10.0,West,8.1,-,N/A,,Clear,270,2012-12-09 20:35:00
3:55 PM,68.4,54.5,61,29.97,10.0,West,4.6,-,N/A,,Clear,280,2012-12-09 20:55:00
4:15 PM,67.6,54.5,63,29.97,10.0,West,3.5,-,N/A,,Clear,260,2012-12-09 21:15:00
4:35 PM,67.1,54.5,64,29.97,10.0,WSW,3.5,-,N/A,,Clear,250,2012-12-09 21:35:00
4:55 PM,66.7,54.5,65,29.98,10.0,Calm,Calm,-,N/A,,Mostly Cloudy,0,2012-12-09 21:55:00
5:15 PM,66.2,54.7,66,29.98,10.0,Calm,Calm,-,N/A,,Overcast,0,2012-12-09 22:15:00
5:35 PM,65.5,54.7,68,29.99,10.0,Calm,Calm,-,N/A,,Overcast,0,2012-12-09 22:35:00
5:55 PM,65.1,54.3,68,29.99,10.0,Calm,Calm,-,N/A,,Overcast,0,2012-12-09 22:55:00
6:15 PM,64.4,54.7,71,29.99,10.0,NW,3.5,-,N/A,,Overcast,310,2012-12-09 23:15:00
6:35 PM,64.6,54.9,71,29.99,10.0,Calm,Calm,-,N/A,,Overcast,0,2012-12-09 23:35:00
7:15 PM,61.0,54.9,80,29.98,10.0,Calm,Calm,-,N/A,,Scattered Clouds,0,2012-12-10 00:15:00
7:35 PM,58.6,55.2,88,29.98,10.0,Calm,Calm,-,N/A,,Clear,0,2012-12-10 00:35:00
7:55 PM,58.1,54.3,87,29.98,10.0,Calm,Calm,-,N/A,,Scattered Clouds,0,2012-12-10 00:55:00
8:15 PM,58.3,54.1,86,29.98,10.0,Calm,Calm,-,N/A,,Scattered Clouds,0,2012-12-10 01:15:00
8:35 PM,56.1,53.4,91,29.98,10.0,Calm,Calm,-,N/A,,Scattered Clouds,0,2012-12-10 01:35:00
8:55 PM,56.3,53.6,91,29.96,10.0,Calm,Calm,-,N/A,,Scattered Clouds,0,2012-12-10 01:55:00
9:15 PM,55.0,52.7,92,29.96,10.0,Calm,Calm,-,N/A,,Clear,0,2012-12-10 02:15:00
9:35 PM,55.2,53.1,92,29.95,10.0,Calm,Calm,-,N/A,,Clear,0,2012-12-10 02:35:00
9:55 PM,54.9,52.9,93,29.94,10.0,Calm,Calm,-,N/A,,Clear,0,2012-12-10 02:55:00
10:15 PM,54.1,52.9,95,29.94,10.0,Calm,Calm,-,N/A,,Clear,0,2012-12-10 03:15:00
10:35 PM,53.4,52.2,95,29.94,10.0,Calm,Calm,-,N/A,,Clear,0,2012-12-10 03:35:00
10:55 PM,53.6,52.3,95,29.93,10.0,Calm,Calm,-,N/A,,Clear,0,2012-12-10 03:55:00
11:15 PM,52.9,52.3,98,29.94,10.0,Calm,Calm,-,N/A,,Scattered Clouds,0,2012-12-10 04:15:00
11:35 PM,51.6,50.7,97,29.94,10.0,Calm,Calm,-,N/A,,Scattered Clouds,0,2012-12-10 04:35:00
11:55 PM,52.5,51.4,96,29.93,10.0,Calm,Calm,-,N/A,,Scattered Clouds,0,2012-12-10 04:55:00